Regional Weather Roundup
Issued by NWS

Home | Current Version | Previous Version | Text Only | Print | Product List | Glossary On
Versions: 1 2 3 4 5 6 7 8 9 10 11 12 13 14 15 16 17 18 19 20 21 22 23 24 25 26 27
000
ASUS44 KBMX 041410
RWRAL

ALABAMA REGIONAL WEATHER ROUNDUP
NATIONAL WEATHER SERVICE BIRMINGHAM AL
800 AM CST SUN DEC 04 2016

NOTE: "FAIR" INDICATES FEW OR NO CLOUDS BELOW 12,000 FEET
WITH NO SIGNIFICANT WEATHER AND/OR OBSTRUCTIONS TO VISIBILITY.

THE REMARK "TC" DENOTES TEMPERATURE IN DEGREES CELSIUS.

ALZ001>011-014-016>018-020-041500-
NORTH ALABAMA

CITY           SKY/WX    TMP DP  RH WIND       PRES   REMARKS
MUSCLE SHOALS  CLOUDY    46  43  89 E9        30.05R
HUNTSVILLE     LGT RAIN  46  44  93 SE13      30.05F
DECATUR        LGT RAIN  45  45 100 E10       30.05S FOG
HALEYVILLE     LGT RAIN  44  43  96 VRB7      30.03R
GADSDEN        LGT RAIN  45  44  97 E10       30.09R
$$

ALZ012-013-022-023-030>036-040>044-041500-
WEST CENTRAL ALABAMA

CITY           SKY/WX    TMP DP  RH WIND       PRES   REMARKS
TUSCALOOSA     LGT RAIN  48  47  96 E3        30.01F
$$

ALZ015-024>027-033>036-040>044-041500-
CENTRAL ALABAMA

CITY           SKY/WX    TMP DP  RH WIND       PRES   REMARKS
BIRMINGHAM     LGT RAIN  47  46  97 E6        30.04F
MONTGOMERY     LGT RAIN  51  46  83 E13       30.02F
SHELBY CO ARPT CLOUDY    48  48 100 E6        30.02R
MAXWELL AFB    LGT RAIN  50  48  93 NE9       30.02S
GREENVILLE     LGT RAIN  56  51  84 E3        30.00R
$$

ALZ019-021-028-029-037-038-045>048-041500-
EAST CENTRAL ALABAMA

CITY           SKY/WX    TMP DP  RH WIND       PRES   REMARKS
ANNISTON       LGT RAIN  47  44  90 E10       30.09R
ALEXANDER CITY CLOUDY    50  48  95 SE8       30.06S
AUBURN         LGT RAIN  47  46  97 E12       30.08S FOG
$$

ALZ051>064-041500-
SOUTHWEST ALABAMA

CITY           SKY/WX    TMP DP  RH WIND       PRES   REMARKS
MOBILE         RAIN      63  63 100 S7        29.95R FOG
BROOKLEY FIELD HVY RAIN  68  67  96 S13G18    29.96R FOG
EVERGREEN      LGT RAIN  56  53  90 E5        29.99F
$$

ALZ049-050-065>069-041500-
SOUTHEAST ALABAMA

CITY           SKY/WX    TMP DP  RH WIND       PRES   REMARKS
DOTHAN         CLOUDY    58  53  84 SE12      30.07S
OZARK          CLOUDY    59  52  77 E8        30.03S
TROY           CLOUDY    57  54  89 SE6       30.03S
EUFAULA        CLOUDY    58  49  72 SE9       30.06S
$$




USA.gov is the U.S. government's official web portal to all federal, state and local government web resources and services.